Content
SEND FEEDBACK

Daily
Averages
Monthly
Summary
United States of America

MERIZO, GUAM


Home > North America > United States > Guam
Elevation: 3 meters     Latitude: 13 14N     Longitude: 144 39E

WEATHER
 
SELECT A DAY
Number of Records: 341,631;   Date Range: 1/1/95 - 7/20/14
 
SHARE

PRINT THIS DATA

[ ← Previous Day ]
WEATHER ALMANAC - 12 JANUARY, 2014
[ Next Day → ]
[ °F ]   °C
Weather ElementAverageHighLow
Temperature26.4 °C29 °C (11:43 am)24.7 °C (3:58 am)
Dewpoint24.1 °C25.3 °C (9:58 pm)22 °C (3:18 am)
Humidity87.5 %100 % (9:42 pm)74 % (12:58 pm)
Barometer1011.5 hPa1013.5 hPa (8:58 am)1009.5 hPa (1:58 pm)
Wind Speed20.9 km/h33.3 km/h (11:43 am)
Wind Gust40.7 km/h (12:58 pm)
Weather ElementAverage
Visibility15.9 km
Wind DirectionENE (64.9 °)

Weather ElementTotal
Precipitation---
Cooling Degree Days8.6 (Base 18.3)
Growing Degree Days16.9 (Base 10)
Averaged from 63 records on 12 January, 2014
WEATHER CONDITIONS BREAKOUT
WIND DIRECTION BREAKOUT
WEATHER BY HOUR - 12 JANUARY, 2014
[ °F ]   °C
Local TimeTemperatureDewpointHumidityBarometerVisibilityWind DirectionWind SpeedGust SpeedPrecipitationEventsConditions
12:58 AM24.8 °C22.2 °C85 %1011.9 hPa16.1 kmENE (70°)25.9 km/h33.3 km/hPartly Cloudy
1:58 AM24.9 °C22.5 °C86 %1011.2 hPa16.1 kmENE (60°)22.2 km/hScattered Clouds
2:53 AM25 °C23 °C89 %1012.2 hPa16.1 kmENE (60°)20.4 km/hMostly Cloudy
2:58 AM25.2 °C22.5 °C85 %1011.2 hPa16.1 kmENE (60°)18.5 km/hMostly Cloudy
3:18 AM25 °C22 °C83 %1012.2 hPa16.1 kmENE (60°)22.2 km/hScattered Clouds
3:58 AM24.7 °C22.4 °C87 %1011.2 hPa16.1 kmENE (60°)14.8 km/hClear
4:58 AM24.8 °C22.4 °C86 %1011.2 hPa16.1 kmENE (60°)16.7 km/hPartly Cloudy
5:58 AM24.8 °C22.8 °C89 %1011.2 hPa16.1 kmENE (60°)14.8 km/hPartly Cloudy
6:23 AM25 °C23 °C89 %1012.2 hPa16.1 kmNE (50°)20.4 km/hMostly Cloudy
6:28 AM25 °C23 °C89 %1012.5 hPa16.1 kmENE (60°)20.4 km/hMostly Cloudy
6:33 AM25 °C23 °C89 %1012.5 hPa16.1 kmNE (50°)20.4 km/hScattered Clouds
6:58 AM25.2 °C23.3 °C89 %1011.5 hPa16.1 kmENE (60°)16.7 km/hScattered Clouds
7:58 AM25.8 °C23.2 °C85 %1013.2 hPa16.1 kmENE (60°)20.4 km/hClear
8:58 AM27.3 °C24 °C82 %1013.5 hPa16.1 kmENE (60°)20.4 km/hPartly Cloudy
9:58 AM27.7 °C23.7 °C79 %1012.9 hPa16.1 kmENE (60°)25.9 km/hScattered Clouds
10:58 AM28.8 °C24.1 °C76 %1011.9 hPa16.1 kmNE (50°)27.8 km/h37 km/hScattered Clouds
11:08 AM28 °C24 °C79 %1012.9 hPa16.1 kmNE (40°)25.9 km/hMostly Cloudy
11:13 AM28 °C24 °C79 %1012.9 hPa16.1 kmNE (50°)24.1 km/hMostly Cloudy
11:33 AM28 °C24 °C79 %1012.5 hPa16.1 kmNE (40°)31.5 km/hMostly Cloudy
11:38 AM28 °C24 °C79 %1012.5 hPa16.1 kmNE (50°)22.2 km/hScattered Clouds
11:43 AM29 °C25 °C79 %1012.5 hPa16.1 kmNE (40°)33.3 km/hMostly Cloudy
11:48 AM28 °C24 °C79 %1012.5 hPa16.1 kmNE (40°)29.6 km/hMostly Cloudy
11:53 AM28 °C24 °C79 %1012.5 hPa16.1 kmNE (40°)27.8 km/hScattered Clouds
11:58 AM27.6 °C24.1 °C81 %1011.5 hPa16.1 kmNE (40°)33.3 km/hScattered Clouds
12:58 PM28.5 °C23.5 °C74 %1010.5 hPa16.1 kmNE (50°)33.3 km/h40.7 km/hScattered Clouds
1:58 PM28.6 °C23.8 °C75 %1009.5 hPa16.1 kmNE (40°)31.5 km/hScattered Clouds
2:58 PM28.6 °C23.9 °C76 %1009.5 hPa16.1 kmNE (40°)31.5 km/hScattered Clouds
3:03 PM28 °C24 °C79 %1010.2 hPa16.1 kmNNE (30°)25.9 km/hMostly Cloudy
3:18 PM28 °C24 °C79 %1010.2 hPa16.1 kmNE (40°)31.5 km/h38.9 km/hScattered Clouds
3:23 PM28 °C24 °C79 %1010.2 hPa16.1 kmNE (40°)29.6 km/h38.9 km/hMostly Cloudy
3:33 PM28 °C24 °C79 %1010.2 hPa16.1 kmNNE (30°)27.8 km/hScattered Clouds
3:58 PM27.9 °C23.9 °C79 %1009.5 hPa16.1 kmNE (40°)22.2 km/hPartly Cloudy
4:58 PM27.5 °C24.7 °C85 %1009.5 hPa16.1 kmNE (40°)24.1 km/hScattered Clouds
5:03 PM27 °C25 °C89 %1010.5 hPa16.1 kmNE (40°)22.2 km/hScattered Clouds
5:08 PM27 °C25 °C89 %1010.5 hPa16.1 kmNE (50°)20.4 km/hMostly Cloudy
5:13 PM27 °C25 °C89 %1010.5 hPa16.1 kmNE (40°)22.2 km/hMostly Cloudy
5:43 PM26 °C25 °C94 %1010.5 hPa16.1 kmNE (50°)16.7 km/hMostly Cloudy
5:53 PM26 °C24 °C89 %1010.8 hPa16.1 kmNE (50°)16.7 km/hMostly Cloudy
5:58 PM26 °C24.4 °C91 %1009.5 hPa16.1 kmENE (60°)14.8 km/hScattered Clouds
6:48 PM26 °C25 °C94 %1010.8 hPa16.1 kmENE (60°)18.5 km/hMostly Cloudy
6:58 PM25.8 °C24.9 °C95 %1009.8 hPa16.1 kmENE (60°)16.7 km/hScattered Clouds
7:03 PM26 °C25 °C94 %1010.8 hPa16.1 kmENE (60°)13 km/hMostly Cloudy
7:18 PM26 °C24 °C89 %1010.8 hPa16.1 kmENE (70°)16.7 km/hScattered Clouds
7:43 PM26 °C25 °C94 %1011.2 hPa16.1 kmENE (70°)20.4 km/hMostly Cloudy
7:53 PM26 °C25 °C94 %1011.5 hPa16.1 kmEast (90°)9.3 km/hMostly Cloudy
7:58 PM26 °C25 °C94 %1010.5 hPa16.1 kmEast (80°)13 km/hMostly Cloudy
8:43 PM26 °C25 °C94 %1011.9 hPa16.1 kmEast (90°)18.5 km/h31.5 km/hMostly Cloudy
8:53 PM26 °C25 °C94 %1011.9 hPa16.1 kmEast (90°)16.7 km/h31.5 km/hMostly Cloudy
8:58 PM26 °C25 °C94 %1011.2 hPa16.1 kmEast (100°)16.7 km/h27.8 km/hMostly Cloudy
9:13 PM26 °C25 °C94 %1011.9 hPa14.5 kmESE (110°)16.7 km/h37 km/hMostly Cloudy
9:18 PM26 °C25 °C94 %1011.9 hPa16.1 kmESE (110°)13 km/h37 km/hMostly Cloudy
9:28 PM26 °C25 °C94 %1011.9 hPa16.1 kmESE (110°)16.7 km/h27.8 km/hMostly Cloudy
9:32 PM26 °C25 °C94 %1011.9 hPa14.5 kmEast (90°)27.8 km/h37 km/hRainLight Rain
9:37 PM25 °C24 °C94 %1011.9 hPa12.9 kmEast (80°)20.4 km/h37 km/hRainLight Rain
9:42 PM25 °C25 °C100 %1011.9 hPa14.5 kmEast (90°)16.7 km/hLight Drizzle
9:45 PM25 °C25 °C100 %1011.9 hPa16.1 kmEast (90°)16.7 km/hMostly Cloudy
9:50 PM25 °C25 °C100 %1011.9 hPa16.1 kmEast (100°)18.5 km/hMostly Cloudy
9:58 PM25.6 °C25.3 °C98 %1011.2 hPa16.1 kmEast (100°)18.5 km/h0 mmMostly Cloudy
10:00 PM26 °C25 °C94 %1011.9 hPa16.1 kmEast (100°)13 km/hLight Drizzle
10:09 PM26 °C25 °C94 %1011.9 hPa16.1 kmESE (110°)13 km/hMostly Cloudy
10:58 PM25.9 °C24.6 °C92 %1011.2 hPa16.1 kmEast (100°)16.7 km/h0 mmPartly Cloudy
11:43 PM26 °C24 °C89 %1011.9 hPa16.1 kmEast (100°)9.3 km/hMostly Cloudy
11:58 PM26 °C24 °C89 %1010.5 hPa16.1 kmESE (110°)13 km/hScattered Clouds
Hourly data recorded from PGUA, located 0 kilometers away from Merizo, Guam







STORIES FROM OUR PARTNERS